Regional Weather Roundup
Issued by NWS State College, PA

Home | Current Version | Previous Version | Text Only | Print | Product List | Glossary On
Versions: 1 2 3 4 5 6 7 8 9 10 11 12 13 14 15 16 17 18 19 20 21 22 23 24 25 26 27 28 29 30 31 32 33 34 35 36 37 38 39 40 41 42 43 44 45 46 47 48 49 50
792
ASUS41 KCTP 190403
RWRCTP

REGIONAL WEATHER ROUNDUP
NATIONAL WEATHER SERVICE STATE COLLEGE PA
1200 AM EDT THU APR 19 2018

Note: "fair" indicates few or no clouds below 12,000 feet with no
significant weather and/or obstructions to visibility.

* = STATION THAT DOES NOT REPORT PRECIPITATION /E.G. RAIN...SNOW...ETC/
    THUNDER OR FOG.

PAZ002>004-007>009-013>016-020>023-029>032-190500-
WESTERN PENNSYLVANIA

CITY           SKY/WX    TMP DP  RH WIND       PRES   REMARKS
ERIE           CLOUDY    34  28  79 NE7       29.77F
MEADVILLE      CLOUDY    33  29  85 N6        29.73S
FRANKLIN*      NOT AVBL
NEW CASTLE     LGT RAIN  39  36  89 NE8       29.74R
BEAVER COUNTY  NOT AVBL
BUTLER*        RAIN      42  36  79 NE5       29.71R
PITTSBURGH INT RAIN      45  41  86 N6        29.70R
PITTSBURGH     LGT RAIN  44  40  85 N6        29.70R
INDIANA*       CLOUDY    46  36  66 VRB3      29.70F
LATROBE        LGT RAIN  46  37  71 NW6       29.70R
WASHINGTON CO* RAIN      44  41  89 NE8       29.71R
$$

PAZ004>006-010>012-017>019-024>028-033>037-041-042-045-046-049>053-190500-
CENTRAL PENNSYLVANIA

CITY           SKY/WX    TMP DP  RH WIND       PRES   REMARKS
BRADFORD       FAIR      32  26  78 CALM      29.69F
DUBOIS         CLOUDY    37  30  75 NE8       29.67F
CLEARFIELD     CLOUDY    42  31  64 E7        29.70F
JOHNSTOWN      LGT RAIN  45  34  65 N3        29.63F
ALTOONA        CLOUDY    48  37  65 NE5       29.65F
STATE COLLEGE  CLOUDY    42  32  67 NE9       29.70F
WILLIAMSPORT   CLOUDY    43  33  68 CALM      29.74F
SELINSGROVE    CLOUDY    46  32  58 NE9       29.73F
FT INDIANTOWN  CLOUDY    47  39  72 N3        29.71F
CAPITAL CITY   CLOUDY    52  35  52 E5        29.70F
HARRISBURG     CLOUDY    49  37  63 SE6       29.69F
YORK           MOCLDY    51  34  52 S7        29.70F
$$

PAZ038>040-043-044-047-048-054-055-060>062-067>071-190500-
EASTERN PENNSYLVANIA

CITY           SKY/WX    TMP DP  RH WIND       PRES   REMARKS
SCRANTON       CLOUDY    40  31  70 NE5       29.77R
MOUNT POCONO   CLOUDY    35  30  82 NW3       29.73S
ALLENTOWN      CLOUDY    47  33  58 NE6       29.74S
QUAKERTOWN*    CLOUDY    46  34  61 CALM      29.73F
READING        CLOUDY    48  37  65 CALM      29.72F
LANCASTER      MOCLDY    46  39  76 SE3       29.71F
COATESVILLE    MOCLDY    46  34  61 E6        29.73F
POTTSTOWN      CLOUDY    47  33  58 CALM      29.74F
BLUE BELL      CLOUDY    45  36  70 CALM      29.74F
DOYLESTOWN     CLOUDY    46  37  71 SE5       29.73F
WILLOW GROVE   NOT AVBL
NORTH PHILA    CLOUDY    52  33  48 SE6       29.76F
PHILADELPHIA   CLOUDY    50  35  56 E5        29.74F
$$




USA.gov is the U.S. government's official web portal to all federal, state and local government web resources and services.